Amateur Radio Satellites - All Passes

Search period start: 23 May 2013 15:33
Search period end: 24 May 2013 15:33
Location: Chequamegon National Forest, 46.1070°N, 90.8420°W

Satellite Date Start Highest point End Downlink Frequencies (MHz)
Time Altitude Azimuth
Gurwin Techsat 1B 23 May 15:39:32 15:44:50 79° 74° (ENE) 15:50:11 435.225 FM
Uosat F 23 May 15:50:51 15:55:49 67° 258° (WSW) 16:00:49 435.120 FM
Sapphire 23 May 15:51:18 15:56:29 43° 49° (NE) 16:01:38 437.095 MHz 1200 baud AX-25 AFSK
RS-15 23 May 15:56:27 16:07:21 43° 109° (ESE) 16:17:49 29.354 - 29.394 USB, Beacon 29.352 USB
AO-Echo 23 May 15:58:44 16:02:45 26° 266° (W) 16:06:44 ?
SO-50 23 May 16:15:40 16:19:37 27° 40° (NE) 16:23:29 436.795 FM
TMSAT-1 23 May 16:57:50 17:02:35 34° 264° (W) 17:07:23 436.925 FM
PCSat 23 May 17:01:36 17:06:57 59° 243° (WSW) 17:12:15 145.825 MHz
AO-7 23 May 17:02:43 17:11:02 85° 251° (WSW) 17:19:26 29.400 - 29.500 MHz
Gurwin Techsat 1B 23 May 17:22:28 17:25:27 15° 272° (W) 17:28:28 435.225 FM
UOSAT-12 23 May 17:33:27 17:34:04 10° 19° (NNE) 17:34:42 437.025 FM, 437.400 FM
Sapphire 23 May 17:34:58 17:39:49 34° 249° (WSW) 17:44:39 437.095 MHz 1200 baud AX-25 AFSK
SO-50 23 May 17:56:04 18:00:29 50° 240° (WSW) 18:04:48 436.795 FM
JAS-1B 23 May 17:59:42 18:05:47 22° 55° (NE) 18:11:14 435.800 - 435.900 CW/SSB
RS-15 23 May 18:07:20 18:19:16 68° 313° (NW) 18:30:42 29.354 - 29.394 USB, Beacon 29.352 USB
Hamsat 23 May 18:26:53 18:30:30 28° 67° (ENE) 18:34:08 145.90 MHz
SO-67 23 May 18:36:37 18:36:43 10° 61° (ENE) 18:36:49 435.3500 MHz FM
STRAND 1 23 May 18:55:08 18:59:47 34° 96° (E) 19:04:26 ?
AO-7 23 May 18:59:30 19:05:01 19° 272° (W) 19:10:35 29.400 - 29.500 MHz
UOSAT-12 23 May 19:11:33 19:15:41 32° 42° (NE) 19:19:49 437.025 FM, 437.400 FM
JAS-2 23 May 19:40:17 19:44:24 15° 48° (NE) 19:48:28 435.800 - 435.900 CW/SSB, 435.910 FM
JAS-1B 23 May 19:46:27 19:55:35 84° 73° (ENE) 20:03:16 435.800 - 435.900 CW/SSB
HO-68 23 May 19:56:45 20:02:14 25° 54° (NE) 20:07:44 435.675 MHz FM
Hamsat 23 May 20:02:50 20:06:31 29° 265° (W) 20:10:16 145.90 MHz
SO-67 23 May 20:06:05 20:09:38 70° 259° (WSW) 20:13:13 435.3500 MHz FM
RS-15 23 May 20:23:57 20:34:12 33° 343° (NNW) 20:44:05 29.354 - 29.394 USB, Beacon 29.352 USB
Oscar 11 23 May 20:29:58 20:31:25 12° 58° (ENE) 20:32:53 145.825 FM, Beacon 2401.500 USB
STRAND 1 23 May 20:34:21 20:38:59 35° 294° (WNW) 20:43:36 ?
UOSAT-12 23 May 20:51:38 20:55:58 41° 241° (WSW) 21:00:17 437.025 FM, 437.400 FM
OPAL 23 May 21:20:18 21:24:32 26° 60° (ENE) 21:28:45 ?
JAS-2 23 May 21:20:19 21:27:54 58° 68° (ENE) 21:35:29 435.800 - 435.900 CW/SSB, 435.910 FM
KITSAT 1 23 May 21:26:38 21:30:11 14° 98° (E) 21:33:45 435.175 FM
JAS-1B 23 May 21:39:52 21:46:42 24° 269° (W) 21:52:51 435.800 - 435.900 CW/SSB
HO-68 23 May 21:42:04 21:49:13 80° 254° (WSW) 21:56:24 435.675 MHz FM
Oscar 11 23 May 22:02:39 22:06:59 88° 256° (WSW) 22:11:21 145.825 FM, Beacon 2401.500 USB
RS-15 23 May 22:40:50 22:50:51 33° 17° (NNE) 23:00:31 29.354 - 29.394 USB, Beacon 29.352 USB
AO-40 23 May 22:55:54 04:33:29 38° 173° (S) 09:39:17 Beacon 2401.320
OPAL 23 May 22:58:10 23:03:11 48° 258° (WSW) 23:08:11 ?
JAS-2 23 May 23:06:09 23:13:09 36° 267° (W) 23:20:13 435.800 - 435.900 CW/SSB, 435.910 FM
KITSAT 1 23 May 23:16:05 23:24:01 67° 118° (ESE) 23:32:03 435.175 FM
HO-68 23 May 23:34:06 23:38:01 15° 273° (W) 23:41:57 435.675 MHz FM
MaSat-1 24 May 00:14:30 00:14:49 10° 99° (E) 00:15:09 437.345 MHz
RS-15 24 May 00:54:24 01:05:39 70° 48° (NE) 01:16:30 29.354 - 29.394 USB, Beacon 29.352 USB
KITSAT 1 24 May 01:12:30 01:19:57 39° 321° (NW) 01:27:29 435.175 FM
Oscar 16 24 May 01:32:02 01:34:36 14° 88° (E) 01:37:09 437.025 USB, Beacon 2401.1428
AO-27 24 May 01:44:08 01:46:29 13° 87° (E) 01:48:49 436.795 MHz FM
MaSat-1 24 May 01:49:29 01:56:16 58° 114° (ESE) 02:01:49 437.345 MHz
ITAMSAT 1 24 May 01:50:05 01:52:53 15° 88° (E) 01:55:42 435.822 SSB
Uribyol 2 24 May 02:29:24 02:34:09 34° 96° (E) 02:38:52 436.500 FM
Oscar 19 24 May 02:29:59 02:34:50 39° 97° (E) 02:39:37 437.125 CW, 437.150 USB
ISS 24 May 03:05:38 03:08:51 52° 146° (SE) 03:12:07 145.800 FM
RS-15 24 May 03:07:30 03:17:14 38° 252° (WSW) 03:26:50 29.354 - 29.394 USB, Beacon 29.352 USB
Oscar 16 24 May 03:09:25 03:14:38 83° 286° (WNW) 03:19:48 437.025 USB, Beacon 2401.1428
KITSAT 1 24 May 03:12:29 03:18:01 19° 349° (N) 03:23:33 435.175 FM
AO-27 24 May 03:21:27 03:26:43 88° 285° (WNW) 03:31:58 436.795 MHz FM
ITAMSAT 1 24 May 03:27:47 03:33:02 80° 286° (WNW) 03:38:16 435.822 SSB
MaSat-1 24 May 03:32:52 03:38:37 31° 308° (NW) 03:43:23 437.345 MHz
TMSAT-1 24 May 03:33:22 03:34:57 11° 86° (E) 03:36:31 436.925 FM
Gurwin Techsat 1B 24 May 03:53:46 03:58:12 26° 93° (E) 04:02:36 435.225 FM
Uosat F 24 May 03:56:22 04:00:50 31° 96° (E) 04:05:16 435.120 FM
AO-Echo 24 May 04:02:06 04:06:52 81° 103° (ESE) 04:11:44 ?
Uribyol 2 24 May 04:08:54 04:13:39 36° 294° (WNW) 04:18:22 436.500 FM
Oscar 19 24 May 04:09:35 04:14:05 31° 295° (WNW) 04:18:32 437.125 CW, 437.150 USB
STRAND 1 24 May 04:39:48 04:40:25 10° 52° (NE) 04:41:02 ?
ISS 24 May 04:42:29 04:45:40 40° 345° (NNW) 04:48:51 145.800 FM
Saudisat 1A 24 May 04:48:28 04:51:18 16° 110° (ESE) 04:54:08 436.775 MHz
Oscar 16 24 May 04:50:43 04:53:12 14° 305° (NW) 04:55:41 437.025 USB, Beacon 2401.1428
AO-7 24 May 05:02:02 05:09:00 28° 93° (E) 05:15:55 29.400 - 29.500 MHz
AO-27 24 May 05:02:42 05:05:30 15° 304° (NW) 05:08:18 436.795 MHz FM
ITAMSAT 1 24 May 05:09:17 05:11:44 13° 305° (NW) 05:14:10 435.822 SSB
TMSAT-1 24 May 05:10:22 05:15:43 81° 104° (ESE) 05:21:02 436.925 FM
KITSAT 1 24 May 05:10:53 05:16:55 22° 19° (NNE) 05:22:56 435.175 FM
Gurwin Techsat 1B 24 May 05:33:19 05:38:23 46° 291° (WNW) 05:43:26 435.225 FM
Uosat F 24 May 05:35:06 05:39:40 36° 294° (WNW) 05:44:14 435.120 FM
AO-Echo 24 May 05:42:35 05:45:05 14° 301° (WNW) 05:47:36 ?
PCSat 24 May 06:06:33 06:08:26 12° 102° (ESE) 06:10:19 145.825 MHz
STRAND 1 24 May 06:13:36 06:18:37 63° 71° (ENE) 06:23:41 ?
ISS 24 May 06:19:52 06:22:54 31° 5° (N) 06:25:57 145.800 FM
Saudisat 1A 24 May 06:25:53 06:30:28 71° 308° (NW) 06:35:06 436.775 MHz
Sapphire 24 May 06:37:06 06:41:06 22° 107° (ESE) 06:45:08 437.095 MHz 1200 baud AX-25 AFSK
TMSAT-1 24 May 06:51:43 06:55:00 17° 302° (WNW) 06:58:17 436.925 FM
AO-7 24 May 06:54:09 07:02:29 72° 293° (WNW) 07:10:47 29.400 - 29.500 MHz
KITSAT 1 24 May 07:06:30 07:14:26 52° 46° (NE) 07:22:19 435.175 FM
JAS-1B 24 May 07:31:57 07:35:15 15° 86° (E) 07:38:26 435.800 - 435.900 CW/SSB
PCSat 24 May 07:45:32 07:50:56 78° 120° (ESE) 07:56:23 145.825 MHz
Hamsat 24 May 07:46:11 07:50:20 41° 98° (E) 07:54:29 145.90 MHz
STRAND 1 24 May 07:54:50 07:58:17 18° 269° (W) 08:01:44 ?
ISS 24 May 07:56:38 07:59:59 70° 25° (NNE) 08:03:20 145.800 FM
Saudisat 1A 24 May 08:08:02 08:11:00 17° 329° (NNW) 08:13:58 436.775 MHz
SO-50 24 May 08:13:53 08:18:02 30° 116° (ESE) 08:22:09 436.795 FM
Sapphire 24 May 08:18:42 08:24:03 64° 306° (NW) 08:29:28 437.095 MHz 1200 baud AX-25 AFSK
AO-7 24 May 08:48:18 08:53:56 21° 315° (NW) 08:59:34 29.400 - 29.500 MHz
KITSAT 1 24 May 09:02:10 09:09:47 46° 248° (WSW) 09:17:22 435.175 FM
SO-67 24 May 09:03:47 09:07:23 74° 284° (WNW) 09:10:57 435.3500 MHz FM
HO-68 24 May 09:08:37 09:13:00 17° 88° (E) 09:17:21 435.675 MHz FM
JAS-1B 24 May 09:20:48 09:26:57 78° 288° (WNW) 09:32:35 435.800 - 435.900 CW/SSB
Hamsat 24 May 09:22:49 09:26:11 22° 295° (WNW) 09:29:33 145.90 MHz
PCSat 24 May 09:30:43 09:35:00 23° 321° (NW) 09:39:18 145.825 MHz
ISS 24 May 09:33:48 09:36:26 21° 222° (SW) 09:39:03 145.800 FM
Oscar 11 24 May 09:49:34 09:51:59 14° 90° (E) 09:54:24 145.825 FM, Beacon 2401.500 USB
SO-50 24 May 09:53:59 09:58:33 43° 314° (NW) 10:03:03 436.795 FM
Sapphire 24 May 10:05:13 10:08:36 16° 328° (NNW) 10:11:59 437.095 MHz 1200 baud AX-25 AFSK
JAS-2 24 May 10:13:32 10:19:54 38° 94° (E) 10:25:32 435.800 - 435.900 CW/SSB, 435.910 FM
MaSat-1 24 May 10:32:50 10:35:57 27° 50° (NE) 10:38:32 437.345 MHz
HO-68 24 May 10:54:29 11:01:42 85° 107° (ESE) 11:08:53 435.675 MHz FM
UOSAT-12 24 May 11:05:35 11:09:34 32° 116° (ESE) 11:13:36 437.025 FM, 437.400 FM
OPAL 24 May 11:05:43 11:10:17 34° 99° (E) 11:14:47 ?
JAS-1B 24 May 11:13:32 11:16:27 14° 311° (NW) 11:19:15 435.800 - 435.900 CW/SSB
Oscar 11 24 May 11:24:18 11:28:37 61° 287° (WNW) 11:32:56 145.825 FM, Beacon 2401.500 USB
Saudisat 1A 24 May 11:34:02 11:34:41 10° 19° (NNE) 11:35:21 436.775 MHz
SO-50 24 May 11:38:21 11:40:23 13° 336° (NNW) 11:42:24 436.795 FM
JAS-2 24 May 11:58:30 12:05:02 43° 296° (WNW) 12:10:49 435.800 - 435.900 CW/SSB, 435.910 FM
Oscar 19 24 May 12:14:10 12:16:02 12° 54° (NE) 12:17:54 437.125 CW, 437.150 USB
Uribyol 2 24 May 12:15:13 12:16:26 11° 53° (NE) 12:17:38 436.500 FM
MaSat-1 24 May 12:15:43 12:17:34 15° 257° (WSW) 12:19:15 437.345 MHz
HO-68 24 May 12:43:16 12:48:36 23° 307° (NW) 12:53:56 435.675 MHz FM
OPAL 24 May 12:44:41 12:49:09 33° 297° (WNW) 12:53:33 ?
UOSAT-12 24 May 12:45:26 12:49:40 38° 315° (NW) 12:53:58 437.025 FM, 437.400 FM
Oscar 16 24 May 12:50:52 12:55:11 27° 63° (ENE) 12:59:31 437.025 USB, Beacon 2401.1428
AO-27 24 May 13:04:05 13:08:21 27° 63° (ENE) 13:12:39 436.795 MHz FM
ITAMSAT 1 24 May 13:10:07 13:14:31 29° 64° (ENE) 13:18:57 435.822 SSB
Saudisat 1A 24 May 13:11:43 13:15:50 32° 42° (NE) 13:19:53 436.775 MHz
Sapphire 24 May 13:39:26 13:40:53 11° 22° (NNE) 13:42:20 437.095 MHz 1200 baud AX-25 AFSK
AO-Echo 24 May 13:41:06 13:44:21 18° 61° (ENE) 13:47:34 ?
Oscar 19 24 May 13:49:19 13:54:29 72° 73° (ENE) 13:59:41 437.125 CW, 437.150 USB
Uribyol 2 24 May 13:49:49 13:54:56 65° 72° (ENE) 14:00:06 436.500 FM
AO-7 24 May 14:16:47 14:20:35 14° 37° (NE) 14:24:23 29.400 - 29.500 MHz
Oscar 16 24 May 14:29:22 14:34:20 45° 261° (W) 14:39:20 437.025 USB, Beacon 2401.1428
UOSAT-12 24 May 14:29:39 14:31:08 11° 338° (NNW) 14:32:38 437.025 FM, 437.400 FM
AO-27 24 May 14:42:42 14:47:39 46° 261° (W) 14:52:40 436.795 MHz FM
PCSat 24 May 14:48:17 14:52:36 23° 39° (NE) 14:56:54 145.825 MHz
ITAMSAT 1 24 May 14:48:59 14:53:52 42° 262° (W) 14:58:48 435.822 SSB
Saudisat 1A 24 May 14:51:22 14:55:39 41° 242° (WSW) 14:59:50 436.775 MHz
TMSAT-1 24 May 14:55:28 14:59:39 24° 62° (ENE) 15:03:51 436.925 FM
SO-50 24 May 15:03:35 15:06:02 14° 27° (NNE) 15:08:26 436.795 FM
Uosat F 24 May 15:12:08 15:17:00 56° 71° (ENE) 15:21:55 435.120 FM
Gurwin Techsat 1B 24 May 15:17:15 15:22:22 51° 70° (ENE) 15:27:31 435.225 FM
AO-Echo 24 May 15:17:59 15:22:45 60° 259° (W) 15:27:26 ?
Sapphire 24 May 15:21:07 15:26:04 34° 46° (NE) 15:31:00 437.095 MHz 1200 baud AX-25 AFSK

Developed and maintained by Chris Peat, Heavens-Above GmbH. Please read the updated FAQ before sending e-mail. Imprint. DLR
